Погода в Бугульме

Хотите узнать прогноз погоды в Бугульме? Тогда Вам сюда: Погода в Бугульме

Поиск расширенной информации на нашем сайте:

Полезная информация:

Новости сайта



02.01.2020
Опубликован Долгосрочный прогноз погоды по городам России и ближнего зарубежья на январь 2020 года.
Карты: Прогноз на январь и февраль 2020 года, Сравнение прогнозируемой аномалии приземной температуры воздуха на январь 2020 года по разным моделям.




Погода в Бугульме - сегодня

Время (UTC), дата Ветер
(°,м/с) 
Видим.   Явления Облачность Т
(°С)
Тd
(°С)
f(%) Тe
(°С)
Pmin
(гПа)
dP
(гПа)
Po
(мм)
O2
(г/м3)
Тmin Tmax R s Состояние
почвы
15 09.08.20 350 (С) 6-12{12}  20000 м  слаб. ливневой дождь  10/8 1000 м кучево-дожд., средняя 
[Cb calv|Ac und]
+13.7 +11.6 87 +17  1003.2  0.2  726  276    +14.7     
18 09.08.20 330 (СЗ) 4{14}  10 км  слаб. ливневой дождь  10/8 1200 м кучево-дожд., средняя 
[Cb calv|Ac und]
+13.2 +10.7 85 +16  1003.2  0.1  726  277           
21 09.08.20 340 (С) 10 км  {ливн. осадки}  10/4 1000 м кучево-дожд., средняя 
[Cb calv|Ac und]
+13.1 +9.9 81 +14  1002.4  -0.8  725  277           
00 10.08.20 330 (СЗ) 6{10}  10 км  {ливн. осадки}  6/3 1500 м средняя 
[Sc diur, vesp|Ac trans]
+11.6 +8.8 83 +10  1002.9  0.3  725  279           
03 10.08.20 330 (СЗ) 6{10}  20000 м    6/4 300 м верхняя 
[St|Ci fib]
+12.1 +9 81 +12  1003.3  0.4  726  278  +11.1        влажная 
06 10.08.20 340 (С) 10-15{16}  20000 м    8/8 1000 м 
[Cu hum]
+15.5 +7.5 59 +14  1002.6  -0.2  726  275           
09 10.08.20 340 (С) 9-14{17}  20000 м    8/8 1200 м кучево-дожд. 
[Cb calv]
+16.9 +7 52 +16  1003.1  0.7  726  274           
12 10.08.20 340 (С) 8-12{15}  20000 м    10/8 1200 м кучево-дожд., верхняя 
[Cb calv|Ci fib]
+17.3 +7.1 51 +17  1004.1  727  274           
15 10.08.20 340 (С) 7-12{13}  20000 м    10/8 1500 м верхняя 
[Sc|Ci fib]
+17 +7.6 54 +17  1005.3  728  275    +18.5       
18 10.08.20 310 (СЗ) 3{12}  10 км    10/8 1500 м верхняя 
[Sc|Ci fib]
+15.1 +8.7 66 +15  1006.2  0.7  728  276           
21 10.08.20 300 (СЗ) 10 км    6/4 1500 м средняя, верхняя 
[Sc|Ac trans|Ci fib]
+11.9 +8.9 82 +11  1007.1  0.4  728  280           
00 11.08.20 300 (СЗ) 10 км    6/4 1500 м средняя, верхняя 
[Sc|Ac trans|Ci fib]
+10.8 +8.6 86 +10  1007.7  0.5  729  281           
03 11.08.20 300 (СЗ) 20000 м    ясно 
+11.7 +8.7 82 +11  1008.3  0.7  729  280  +9.6        влажная 
06 11.08.20 360 (С) 6-10{12}  20000 м    3/3 300 м 
[Cu hum]
+17.5 +7.3 51 +17  1007.7  0.1  729  275           
09 11.08.20 350 (С) 7-12{14}  20000 м    3/3 1000 м 
[Cu hum]
+20 +4.5 36 +20  1007.9  0.5  730  273           
12 11.08.20 350 (С) 6-10{12}  20000 м    3/3 1000 м 
[Cu hum]
+20.8 +4.4 34 +21  1008.2  0.4  730  273           
15 11.08.20 360 (С) 4{11}  20000 м    3/0 средняя 
[Ac trans]
+19.2 +5.7 41 +20  1009.1  0.7  731  274    +21.1       
18 11.08.20 340 (С) 10 км    3/0 средняя 
[Ac trans]
+14.5 +6.7 59 +15  1010.2  0.5  731  279           
21 11.08.20 290 (З) 10 км    4/0 средняя, верхняя 
[Ac trans|Ci fib]
+11.1 +7.1 76 +11  1010.6  0.1  731  282           
00 12.08.20 290 (З) 10 км    3/0 средняя 
[Ac trans]
+8.2 +5.8 85 +9  1011  731  285           
03 12.08.20 310 (СЗ) 20000 м    8/8 1200 м 
[Sc]
+11.9 +8.8 81 +13  1011.2  0.6  731  281  +7.5        сухая 
06 12.08.20 330 (СЗ) 20000 м    10/4 1000 м средняя, верхняя 
[Cu hum|Ac trans|Ci fib]
+16.7 +8.3 58 +18  1010.7  0.2  732  276           
09 12.08.20 070 (В) 20000 м    8/6 800 м верхняя 
[Cu hum|Ci fib]
+19.5 +5.3 39 +21  1010.3  0.1  731  274           
12 12.08.20 330 (СЗ) 1{11}  20000 м    8/8 1000 м 
[Cu hum]
+20.4 +4.6 35 +20  1010.2  731  274           
15 12.08.20 030 (СВ) 20000 м    8/3 1000 м средняя, верхняя 
[Cu hum|Ac trans|Ci fib]
+17.9 +5.1 43 +18  1010.6  0.1  732  276    +21.7       
Время (UTC), дата Ветер
(°,м/с) 
Видим.   Явления Облачность Т
(°С)
Тd
(°С)
f(%) Тe
(°С)
Pmin
(гПа)
dP
(гПа)
Po
(мм)
O2
(г/м3)
Тmin Tmax R s Состояние
почвы

Для получения пояснительной информации подведите курсор к названию столбца.

ПОГОДА в Бугульме - архив

Всё, что Вы хотите узнать о погоде в Бугульме - удобно и подробно!

Выберите нужную дату (начиная с 1 января 2019* года) и нажмите кнопку "Найти".
Будут отображены архивные сводки погоды по пункту Бугульма, начиная с указанной даты.


Отображать данные в формате CSV (для использования в таблицах Excel)


Внимание! Наш архив погоды предназначен исключительно для личного некоммерческого использования в познавательных целях. Если Вам необходимы официальные справки о состоянии погоды (для производственных, юридических, коммерческих и т.п. целей), обращайтесь в органы Росгидромета.

*Примечание: данная дата относится к архиву по метеостанциям СССР (Россия, СНГ, Балтия).
Архив по метеостанциям Зарубежной Европы и Азии (кроме Китая) хранится 10 дней, по другим регионам земного шара (Китай, Африка, Америка, Австралия, Океания) - 1 день.

Бугульма - район местоположения метеостанции


Название, широта, долгота, высота метеостанции:
Бугульма 54.6°ш. 52.8°д. 304 м над ур. моря [Российская Федерация]

Дополнительная информация

В oтличие oт бoльшинства пoгoдных сайтoв мы публикуем пoдрoбную метеoинфoрмацию в детальнoм прoфессиoнальнoм фoрмате.

Характеристики температуры и влажнoсти вoздуха измеряются на высoте 2 м в тени вдали oт зданий и деревьев.
Скoрoсть ветра измеряется на высoте 10 м (на урoвне рoста челoвека скoрoсть ветра ниже в 1.5-2 раза). Если метеoстанция нахoдится в гoрoде или в лесу, тo скoрoсть ветра занижена на 2-4 м/с пo сравнению с oткрытым местoм. Скoрoсть ветра над акватoриями крупных рек и oзёр, а также на вершинах хoлмoв на 2-5 м/с выше, чем в oбычных услoвиях.
Атмoсфернoе давление в разных тoчках местнoсти мoжет значительнo oтличаться oт давления на метеoстанции, в зависимoсти oт услoвий рельефа (при пoдъёме на 10 м давление пoнижается примернo на 1 мм рт.ст.).